Time,TemperatureF,DewpointF,PressureIn,WindDirection,WindDirectionDegrees,WindSpeedMPH,WindSpeedGustMPH,Humidity,HourlyPrecipIn,Conditions,Clouds,dailyrainin,SoftwareType,DateUTC
2013-04-08 00:00:00,47.0,39.2,29.99,SSW,203,6.9,7.8,74,0.00,,,0.00,WUHU216HW,2013-04-08 04:00:00,
2013-04-08 00:05:00,47.2,39.0,29.99,SW,225,4.9,9.2,73,0.00,,,0.00,WUHU216HW,2013-04-08 04:05:00,
2013-04-08 00:10:00,47.0,39.2,29.99,WSW,248,3.4,9.2,74,0.00,,,0.00,WUHU216HW,2013-04-08 04:10:00,
2013-04-08 00:15:00,47.0,39.2,29.99,SW,225,6.7,7.4,74,0.00,,,0.00,WUHU216HW,2013-04-08 04:15:00,
2013-04-08 00:20:00,46.8,39.0,29.98,WSW,248,3.8,7.6,74,0.00,,,0.00,WUHU216HW,2013-04-08 04:20:00,
2013-04-08 00:25:00,46.8,39.3,29.98,WSW,248,5.1,9.2,75,0.00,,,0.00,WUHU216HW,2013-04-08 04:25:00,
2013-04-08 00:30:00,46.8,39.3,29.98,SSW,203,2.9,9.2,75,0.00,,,0.00,WUHU216HW,2013-04-08 04:30:00,
2013-04-08 00:35:00,46.8,39.3,29.99,SW,225,6.5,8.5,75,0.00,,,0.00,WUHU216HW,2013-04-08 04:35:00,
2013-04-08 00:40:00,46.8,39.3,29.99,SW,225,2.9,11.2,75,0.00,,,0.00,WUHU216HW,2013-04-08 04:40:00,
2013-04-08 00:45:00,46.6,39.5,29.98,SSW,203,5.8,11.2,76,0.00,,,0.00,WUHU216HW,2013-04-08 04:45:00,
2013-04-08 00:50:00,46.6,39.5,29.98,SW,225,5.8,8.7,76,0.00,,,0.00,WUHU216HW,2013-04-08 04:50:00,
2013-04-08 00:55:00,46.6,39.5,29.98,SSW,203,4.7,8.7,76,0.00,,,0.00,WUHU216HW,2013-04-08 04:55:00,
2013-04-08 01:00:00,46.4,39.7,29.98,SW,225,4.9,8.1,77,0.00,,,0.00,WUHU216HW,2013-04-08 05:00:00,
2013-04-08 01:05:00,46.4,39.7,29.98,SW,225,3.8,8.1,77,0.00,,,0.00,WUHU216HW,2013-04-08 05:05:00,
2013-04-08 01:10:00,46.4,39.7,29.98,SW,225,3.8,6.9,77,0.00,,,0.00,WUHU216HW,2013-04-08 05:10:00,
2013-04-08 01:15:00,46.4,39.7,29.98,SW,225,3.1,6.9,77,0.00,,,0.00,WUHU216HW,2013-04-08 05:15:00,
2013-04-08 01:20:00,46.3,39.8,29.98,SW,225,3.1,8.5,78,0.00,,,0.00,WUHU216HW,2013-04-08 05:20:00,
2013-04-08 01:25:00,46.3,39.5,29.98,SW,225,4.0,8.5,77,0.00,,,0.00,WUHU216HW,2013-04-08 05:25:00,
2013-04-08 01:30:00,46.1,39.3,29.98,SW,225,4.0,6.0,77,0.00,,,0.00,WUHU216HW,2013-04-08 05:30:00,
2013-04-08 01:35:00,46.1,39.6,29.97,SW,225,2.5,6.0,78,0.00,,,0.00,WUHU216HW,2013-04-08 05:35:00,
2013-04-08 01:40:00,45.9,39.4,29.98,SW,225,2.2,5.8,78,0.00,,,0.00,WUHU216HW,2013-04-08 05:40:00,
2013-04-08 01:45:00,45.9,39.8,29.98,SW,225,2.9,6.0,79,0.00,,,0.00,WUHU216HW,2013-04-08 05:45:00,
2013-04-08 01:50:00,45.9,39.8,29.98,SW,225,5.8,6.0,79,0.00,,,0.00,WUHU216HW,2013-04-08 05:50:00,
2013-04-08 01:55:00,45.9,39.8,29.97,SW,225,2.0,5.8,79,0.00,,,0.00,WUHU216HW,2013-04-08 05:55:00,
2013-04-08 02:00:00,45.7,39.6,29.97,SW,225,4.0,4.7,79,0.00,,,0.00,WUHU216HW,2013-04-08 06:00:00,
2013-04-08 02:06:00,45.7,39.6,29.97,SSW,203,2.5,6.0,79,0.00,,,0.00,WUHU216HW,2013-04-08 06:06:00,
2013-04-08 02:11:00,45.7,40.0,29.96,SW,225,1.8,6.3,80,0.00,,,0.00,WUHU216HW,2013-04-08 06:11:00,
2013-04-08 02:16:00,45.5,39.8,29.96,SW,225,4.0,6.3,80,0.00,,,0.00,WUHU216HW,2013-04-08 06:16:00,
2013-04-08 02:21:00,45.5,40.1,29.96,SSW,203,3.8,5.8,81,0.00,,,0.00,WUHU216HW,2013-04-08 06:21:00,
2013-04-08 02:26:00,45.5,40.1,29.96,SW,225,3.4,6.0,81,0.00,,,0.00,WUHU216HW,2013-04-08 06:26:00,
2013-04-08 02:31:00,45.5,40.1,29.96,SW,225,2.5,6.0,81,0.00,,,0.00,WUHU216HW,2013-04-08 06:31:00,
2013-04-08 02:36:00,45.4,39.9,29.96,SW,225,2.0,4.9,81,0.00,,,0.00,WUHU216HW,2013-04-08 06:36:00,
2013-04-08 02:41:00,45.4,39.9,29.95,WSW,248,3.6,5.4,81,0.00,,,0.00,WUHU216HW,2013-04-08 06:41:00,
2013-04-08 02:46:00,45.2,40.1,29.95,SSW,203,2.5,5.4,82,0.00,,,0.00,WUHU216HW,2013-04-08 06:46:00,
2013-04-08 02:51:00,45.0,39.9,29.95,SW,225,3.1,5.8,82,0.00,,,0.00,WUHU216HW,2013-04-08 06:51:00,
2013-04-08 02:56:00,45.0,40.1,29.95,SSW,203,2.2,5.8,83,0.00,,,0.00,WUHU216HW,2013-04-08 06:56:00,
2013-04-08 03:01:00,45.0,40.1,29.95,SW,225,3.8,4.7,83,0.00,,,0.00,WUHU216HW,2013-04-08 07:01:00,
2013-04-08 03:07:00,45.0,40.1,29.95,West,270,1.3,4.7,83,0.00,,,0.00,WUHU216HW,2013-04-08 07:07:00,
2013-04-08 03:12:00,45.0,39.9,29.95,WSW,248,2.0,4.7,82,0.00,,,0.00,WUHU216HW,2013-04-08 07:12:00,
2013-04-08 03:17:00,45.0,40.1,29.95,WSW,248,2.5,4.0,83,0.00,,,0.00,WUHU216HW,2013-04-08 07:17:00,
2013-04-08 03:22:00,45.0,40.5,29.95,SW,225,3.4,5.1,84,0.00,,,0.00,WUHU216HW,2013-04-08 07:22:00,
2013-04-08 03:27:00,45.0,40.5,29.95,SW,225,4.9,5.1,84,0.00,,,0.00,WUHU216HW,2013-04-08 07:27:00,
2013-04-08 03:32:00,45.0,40.5,29.95,SW,225,2.9,4.9,84,0.00,,,0.00,WUHU216HW,2013-04-08 07:32:00,
2013-04-08 03:37:00,44.8,40.6,29.95,SW,225,4.0,5.8,85,0.00,,,0.00,WUHU216HW,2013-04-08 07:37:00,
2013-04-08 03:42:00,44.8,40.6,29.95,SW,225,4.7,6.3,85,0.00,,,0.00,WUHU216HW,2013-04-08 07:42:00,
2013-04-08 03:47:00,44.6,40.4,29.95,SW,225,3.4,6.3,85,0.00,,,0.00,WUHU216HW,2013-04-08 07:47:00,
2013-04-08 03:52:00,44.6,40.4,29.95,SSW,203,3.6,4.7,85,0.00,,,0.00,WUHU216HW,2013-04-08 07:52:00,
2013-04-08 03:57:00,44.6,40.4,29.95,SW,225,3.4,4.7,85,0.00,,,0.00,WUHU216HW,2013-04-08 07:57:00,
2013-04-08 04:02:00,44.5,40.0,29.95,WNW,293,2.2,4.7,84,0.00,,,0.00,WUHU216HW,2013-04-08 08:02:00,
2013-04-08 04:07:00,44.5,39.6,29.95,West,270,2.2,4.7,83,0.00,,,0.00,WUHU216HW,2013-04-08 08:07:00,
2013-04-08 04:12:00,44.3,39.4,29.95,WSW,248,2.7,4.7,83,0.00,,,0.00,WUHU216HW,2013-04-08 08:12:00,
2013-04-08 04:17:00,44.3,40.1,29.95,WSW,248,2.2,4.0,85,0.00,,,0.00,WUHU216HW,2013-04-08 08:17:00,
2013-04-08 04:22:00,44.3,40.1,29.95,WSW,248,2.5,4.0,85,0.00,,,0.00,WUHU216HW,2013-04-08 08:22:00,
2013-04-08 04:27:00,44.1,40.1,29.95,SSW,203,1.8,2.9,86,0.00,,,0.00,WUHU216HW,2013-04-08 08:27:00,
2013-04-08 04:32:00,44.1,40.1,29.95,SSW,203,2.5,4.0,86,0.00,,,0.00,WUHU216HW,2013-04-08 08:32:00,
2013-04-08 04:37:00,44.1,39.9,29.95,SW,225,1.8,4.0,85,0.00,,,0.00,WUHU216HW,2013-04-08 08:37:00,
2013-04-08 04:42:00,43.9,40.0,29.95,SW,225,1.6,3.4,86,0.00,,,0.00,WUHU216HW,2013-04-08 08:42:00,
2013-04-08 04:47:00,43.7,39.8,29.96,SW,225,2.5,3.4,86,0.00,,,0.00,WUHU216HW,2013-04-08 08:47:00,
2013-04-08 04:52:00,43.6,40.0,29.96,SSW,203,1.8,2.7,87,0.00,,,0.00,WUHU216HW,2013-04-08 08:52:00,
2013-04-08 04:57:00,43.6,40.2,29.96,WSW,248,1.1,4.7,88,0.00,,,0.00,WUHU216HW,2013-04-08 08:57:00,
2013-04-08 05:02:00,43.7,40.4,29.95,SW,225,1.6,4.7,88,0.00,,,0.00,WUHU216HW,2013-04-08 09:02:00,
2013-04-08 05:07:00,43.7,40.4,29.95,WSW,248,1.3,3.6,88,0.00,,,0.00,WUHU216HW,2013-04-08 09:07:00,
2013-04-08 05:12:00,43.7,40.2,29.95,WSW,248,2.7,4.7,87,0.00,,,0.00,WUHU216HW,2013-04-08 09:12:00,
2013-04-08 05:17:00,43.9,40.3,29.95,WSW,248,4.5,4.7,87,0.00,,,0.00,WUHU216HW,2013-04-08 09:17:00,
2013-04-08 05:22:00,44.1,40.8,29.96,West,270,2.9,5.4,88,0.00,,,0.00,WUHU216HW,2013-04-08 09:22:00,
2013-04-08 05:27:00,43.9,39.7,29.96,WSW,248,1.8,5.4,85,0.00,,,0.00,WUHU216HW,2013-04-08 09:27:00,
2013-04-08 05:32:00,43.7,39.5,29.96,WSW,248,1.6,4.5,85,0.00,,,0.00,WUHU216HW,2013-04-08 09:32:00,
2013-04-08 05:37:00,43.7,39.8,29.96,WSW,248,4.0,4.5,86,0.00,,,0.00,WUHU216HW,2013-04-08 09:37:00,
2013-04-08 05:42:00,43.6,39.3,29.96,WSW,248,2.7,4.5,85,0.00,,,0.00,WUHU216HW,2013-04-08 09:42:00,
2013-04-08 05:47:00,43.6,39.3,29.96,WSW,248,1.3,4.0,85,0.00,,,0.00,WUHU216HW,2013-04-08 09:47:00,
2013-04-08 05:52:00,43.6,40.2,29.96,SW,225,1.8,3.6,88,0.00,,,0.00,WUHU216HW,2013-04-08 09:52:00,
2013-04-08 05:57:00,43.6,40.2,29.96,SW,225,1.8,4.0,88,0.00,,,0.00,WUHU216HW,2013-04-08 09:57:00,
2013-04-08 06:02:00,43.6,40.2,29.97,SW,225,1.8,4.0,88,0.00,,,0.00,WUHU216HW,2013-04-08 10:02:00,
2013-04-08 06:07:00,43.6,40.2,29.96,SSW,203,2.5,3.4,88,0.00,,,0.00,WUHU216HW,2013-04-08 10:07:00,
2013-04-08 06:12:00,43.7,40.4,29.96,SW,225,1.8,3.4,88,0.00,,,0.00,WUHU216HW,2013-04-08 10:12:00,
2013-04-08 06:17:00,43.7,40.4,29.97,WSW,248,2.5,4.0,88,0.00,,,0.00,WUHU216HW,2013-04-08 10:17:00,
2013-04-08 06:22:00,43.7,40.4,29.97,SW,225,1.3,4.0,88,0.00,,,0.00,WUHU216HW,2013-04-08 10:22:00,
2013-04-08 06:27:00,43.7,40.4,29.97,SW,225,1.1,3.8,88,0.00,,,0.00,WUHU216HW,2013-04-08 10:27:00,
2013-04-08 06:32:00,43.6,40.2,29.97,SW,225,2.2,3.4,88,0.00,,,0.00,WUHU216HW,2013-04-08 10:32:00,
2013-04-08 06:37:00,43.7,40.4,29.98,SW,225,1.1,3.4,88,0.00,,,0.00,WUHU216HW,2013-04-08 10:37:00,
2013-04-08 06:43:00,43.9,40.6,29.98,SW,225,1.3,2.7,88,0.00,,,0.00,WUHU216HW,2013-04-08 10:43:00,
2013-04-08 06:48:00,43.9,40.6,29.98,SW,225,1.8,4.0,88,0.00,,,0.00,WUHU216HW,2013-04-08 10:48:00,
2013-04-08 06:53:00,44.1,40.8,29.98,SW,225,2.0,4.0,88,0.00,,,0.00,WUHU216HW,2013-04-08 10:53:00,
2013-04-08 06:58:00,44.1,40.8,29.99,SSW,203,0.7,2.7,88,0.00,,,0.00,WUHU216HW,2013-04-08 10:58:00,
2013-04-08 07:03:00,44.1,40.8,29.99,SW,225,2.7,2.7,88,0.00,,,0.00,WUHU216HW,2013-04-08 11:03:00,
2013-04-08 07:08:00,44.1,40.8,29.99,SW,225,1.3,4.0,88,0.00,,,0.00,WUHU216HW,2013-04-08 11:08:00,
2013-04-08 07:13:00,44.3,41.0,29.99,SW,225,2.2,4.0,88,0.00,,,0.00,WUHU216HW,2013-04-08 11:13:00,
2013-04-08 07:18:00,44.3,41.0,29.99,WSW,248,2.5,4.7,88,0.00,,,0.00,WUHU216HW,2013-04-08 11:18:00,
2013-04-08 07:22:00,44.6,41.3,30.00,SW,225,2.0,4.7,88,0.00,,,0.00,WUHU216HW,2013-04-08 11:22:00,
2013-04-08 07:27:00,45.0,41.4,30.00,SW,225,1.3,3.4,87,0.00,,,0.00,WUHU216HW,2013-04-08 11:27:00,
2013-04-08 07:32:00,45.2,41.6,30.00,SW,225,1.1,2.7,87,0.00,,,0.00,WUHU216HW,2013-04-08 11:32:00,
2013-04-08 07:38:00,45.5,41.6,30.00,West,270,2.5,3.6,86,0.00,,,0.00,WUHU216HW,2013-04-08 11:38:00,
2013-04-08 07:43:00,45.9,41.7,30.00,WSW,248,1.1,3.6,85,0.00,,,0.00,WUHU216HW,2013-04-08 11:43:00,
2013-04-08 07:48:00,46.4,41.6,30.00,West,270,3.8,3.8,83,0.00,,,0.00,WUHU216HW,2013-04-08 11:48:00,
2013-04-08 07:53:00,46.8,41.6,30.00,SW,225,3.4,4.5,82,0.00,,,0.00,WUHU216HW,2013-04-08 11:53:00,
2013-04-08 07:58:00,47.2,41.3,30.01,SW,225,2.7,4.5,80,0.00,,,0.00,WUHU216HW,2013-04-08 11:58:00,
2013-04-08 08:03:00,47.7,41.9,30.00,WNW,293,1.6,4.7,80,0.00,,,0.00,WUHU216HW,2013-04-08 12:03:00,
2013-04-08 08:08:00,48.2,41.9,30.00,WNW,293,4.3,4.9,79,0.00,,,0.00,WUHU216HW,2013-04-08 12:08:00,
2013-04-08 08:13:00,48.4,41.8,30.01,West,270,6.3,6.3,78,0.00,,,0.00,WUHU216HW,2013-04-08 12:13:00,
2013-04-08 08:18:00,48.6,41.7,30.00,NW,315,4.7,6.3,77,0.00,,,0.00,WUHU216HW,2013-04-08 12:18:00,
2013-04-08 08:23:00,48.8,41.9,30.00,NW,315,3.6,6.3,77,0.00,,,0.00,WUHU216HW,2013-04-08 12:23:00,
2013-04-08 08:28:00,49.1,41.5,30.00,WNW,293,4.7,4.7,75,0.00,,,0.00,WUHU216HW,2013-04-08 12:28:00,
2013-04-08 08:33:00,49.5,41.9,30.00,NW,315,4.5,5.1,75,0.00,,,0.00,WUHU216HW,2013-04-08 12:33:00,
2013-04-08 08:38:00,49.9,41.9,30.00,WNW,293,3.6,5.1,74,0.00,,,0.00,WUHU216HW,2013-04-08 12:38:00,
2013-04-08 08:43:00,50.2,42.2,30.00,NNW,338,1.8,4.5,74,0.00,,,0.00,WUHU216HW,2013-04-08 12:43:00,
2013-04-08 08:48:00,50.4,41.4,30.00,WSW,248,3.1,6.9,71,0.00,,,0.00,WUHU216HW,2013-04-08 12:48:00,
2013-04-08 08:53:00,50.6,41.2,30.00,WNW,293,2.5,6.9,70,0.00,,,0.00,WUHU216HW,2013-04-08 12:53:00,
2013-04-08 08:58:00,50.8,41.1,30.00,West,270,4.0,7.6,69,0.00,,,0.00,WUHU216HW,2013-04-08 12:58:00,
2013-04-08 09:03:00,51.5,41.3,30.00,NNE,23,5.4,9.2,68,0.00,,,0.00,WUHU216HW,2013-04-08 13:03:00,
2013-04-08 09:08:00,52.2,41.6,30.00,WSW,248,1.1,9.2,67,0.00,,,0.00,WUHU216HW,2013-04-08 13:08:00,
2013-04-08 09:13:00,52.9,41.1,30.01,NNE,23,4.5,7.6,64,0.00,,,0.00,WUHU216HW,2013-04-08 13:13:00,
2013-04-08 09:18:00,53.1,41.2,30.01,North,0,2.9,6.9,64,0.00,,,0.00,WUHU216HW,2013-04-08 13:18:00,
2013-04-08 09:23:00,53.5,40.8,30.01,West,270,6.7,7.2,62,0.00,,,0.00,WUHU216HW,2013-04-08 13:23:00,
2013-04-08 09:28:00,54.0,40.5,30.01,NW,315,9.6,9.6,60,0.00,,,0.00,WUHU216HW,2013-04-08 13:28:00,
2013-04-08 09:33:00,54.0,39.5,30.01,NW,315,3.6,9.6,58,0.00,,,0.00,WUHU216HW,2013-04-08 13:33:00,
2013-04-08 09:38:00,54.4,39.4,30.02,NW,315,4.0,9.6,57,0.00,,,0.00,WUHU216HW,2013-04-08 13:38:00,
2013-04-08 09:43:00,55.8,38.9,30.01,NW,315,6.0,9.2,53,0.00,,,0.00,WUHU216HW,2013-04-08 13:43:00,
2013-04-08 09:48:00,56.5,40.1,30.02,NNW,338,4.0,12.1,54,0.00,,,0.00,WUHU216HW,2013-04-08 13:48:00,
2013-04-08 09:53:00,57.1,40.6,30.02,NNW,338,3.4,12.1,54,0.00,,,0.00,WUHU216HW,2013-04-08 13:53:00,
2013-04-08 09:59:00,57.2,39.3,30.02,WNW,293,4.7,10.5,51,0.00,,,0.00,WUHU216HW,2013-04-08 13:59:00,
2013-04-08 10:04:00,57.1,39.2,30.02,North,0,4.3,11.4,51,0.00,,,0.00,WUHU216HW,2013-04-08 14:04:00,
2013-04-08 10:09:00,56.5,38.2,30.03,North,0,4.3,11.4,50,0.00,,,0.00,WUHU216HW,2013-04-08 14:09:00,
2013-04-08 10:14:00,56.2,37.8,30.03,NW,315,6.9,12.1,50,0.00,,,0.00,WUHU216HW,2013-04-08 14:14:00,
2013-04-08 10:19:00,56.3,38.0,30.03,NW,315,6.9,12.1,50,0.00,,,0.00,WUHU216HW,2013-04-08 14:19:00,
2013-04-08 10:24:00,56.2,37.8,30.03,NE,45,6.5,10.5,50,0.00,,,0.00,WUHU216HW,2013-04-08 14:24:00,
2013-04-08 10:29:00,55.4,37.1,30.03,NNW,338,4.7,10.5,50,0.00,,,0.00,WUHU216HW,2013-04-08 14:29:00,
2013-04-08 10:34:00,55.1,36.7,30.04,NW,315,9.8,13.2,50,0.00,,,0.00,WUHU216HW,2013-04-08 14:34:00,
2013-04-08 10:39:00,55.1,36.7,30.04,NW,315,4.9,13.2,50,0.00,,,0.00,WUHU216HW,2013-04-08 14:39:00,
2013-04-08 10:44:00,55.1,36.7,30.04,West,270,6.5,9.6,50,0.00,,,0.00,WUHU216HW,2013-04-08 14:44:00,
2013-04-08 10:49:00,55.3,36.4,30.05,NW,315,8.3,13.9,49,0.00,,,0.00,WUHU216HW,2013-04-08 14:49:00,
2013-04-08 10:54:00,56.0,37.6,30.05,WNW,293,9.2,13.9,50,0.00,,,0.00,WUHU216HW,2013-04-08 14:54:00,
2013-04-08 10:59:00,56.5,37.0,30.05,NNW,338,6.5,14.5,48,0.00,,,0.00,WUHU216HW,2013-04-08 14:59:00,
2013-04-08 11:04:00,56.7,37.2,30.05,West,270,5.4,14.5,48,0.00,,,0.00,WUHU216HW,2013-04-08 15:04:00,
2013-04-08 11:10:00,57.4,37.4,30.05,WSW,248,5.1,12.8,47,0.00,,,0.00,WUHU216HW,2013-04-08 15:10:00,
2013-04-08 11:15:00,59.8,38.3,30.05,North,0,3.6,7.6,45,0.00,,,0.00,WUHU216HW,2013-04-08 15:15:00,
2013-04-08 11:20:00,61.2,38.4,30.06,WNW,293,3.6,8.5,43,0.00,,,0.00,WUHU216HW,2013-04-08 15:20:00,
2013-04-08 11:25:00,61.0,38.3,30.06,West,270,4.5,11.2,43,0.00,,,0.00,WUHU216HW,2013-04-08 15:25:00,
2013-04-08 11:30:00,61.6,38.7,30.05,West,270,6.0,11.2,43,0.00,,,0.00,WUHU216HW,2013-04-08 15:30:00,
2013-04-08 11:35:00,62.1,37.5,30.05,North,0,3.6,7.6,40,0.00,,,0.00,WUHU216HW,2013-04-08 15:35:00,
2013-04-08 11:40:00,62.8,37.5,30.05,SSW,203,6.7,7.6,39,0.00,,,0.00,WUHU216HW,2013-04-08 15:40:00,
2013-04-08 11:45:00,63.7,39.0,30.05,NNW,338,3.6,7.6,40,0.00,,,0.00,WUHU216HW,2013-04-08 15:45:00,
2013-04-08 11:50:00,64.1,39.9,30.06,NW,315,2.0,8.5,41,0.00,,,0.00,WUHU216HW,2013-04-08 15:50:00,
2013-04-08 11:55:00,63.7,37.5,30.06,NNW,338,3.4,9.2,38,0.00,,,0.00,WUHU216HW,2013-04-08 15:55:00,
2013-04-08 12:00:00,64.1,39.2,30.06,West,270,4.7,9.2,40,0.00,,,0.00,WUHU216HW,2013-04-08 16:00:00,
2013-04-08 12:05:00,64.6,39.1,30.06,NW,315,6.7,7.4,39,0.00,,,0.00,WUHU216HW,2013-04-08 16:05:00,
2013-04-08 12:10:00,64.8,38.5,30.06,West,270,1.3,6.7,38,0.00,,,0.00,WUHU216HW,2013-04-08 16:10:00,
2013-04-08 12:15:00,64.6,38.4,30.06,West,270,4.0,8.7,38,0.00,,,0.00,WUHU216HW,2013-04-08 16:15:00,
2013-04-08 12:20:00,64.3,38.0,30.06,WNW,293,7.8,8.7,38,0.00,,,0.00,WUHU216HW,2013-04-08 16:20:00,
2013-04-08 12:25:00,65.0,39.3,30.06,SW,225,2.9,7.8,39,0.00,,,0.00,WUHU216HW,2013-04-08 16:25:00,
2013-04-08 12:30:00,65.2,38.1,30.06,NW,315,6.9,7.8,37,0.00,,,0.00,WUHU216HW,2013-04-08 16:30:00,
2013-04-08 12:35:00,65.2,38.1,30.06,NW,315,3.1,7.8,37,0.00,,,0.00,WUHU216HW,2013-04-08 16:35:00,
2013-04-08 12:40:00,65.2,37.4,30.06,WNW,293,6.9,9.2,36,0.00,,,0.00,WUHU216HW,2013-04-08 16:40:00,
2013-04-08 12:45:00,65.3,38.3,30.06,WNW,293,6.9,9.2,37,0.00,,,0.00,WUHU216HW,2013-04-08 16:45:00,
2013-04-08 12:50:00,65.5,37.7,30.05,WNW,293,4.5,9.8,36,0.00,,,0.00,WUHU216HW,2013-04-08 16:50:00,
2013-04-08 12:55:00,65.2,37.4,30.05,NNW,338,4.0,12.5,36,0.00,,,0.00,WUHU216HW,2013-04-08 16:55:00,
2013-04-08 13:00:00,65.0,37.9,30.05,NW,315,2.5,12.5,37,0.00,,,0.00,WUHU216HW,2013-04-08 17:00:00,
2013-04-08 13:05:00,65.2,37.4,30.05,West,270,1.8,6.7,36,0.00,,,0.00,WUHU216HW,2013-04-08 17:05:00,
2013-04-08 13:10:00,65.0,37.2,30.05,NNE,23,3.8,7.2,36,0.00,,,0.00,WUHU216HW,2013-04-08 17:10:00,
2013-04-08 13:15:00,64.1,36.4,30.05,NW,315,6.5,9.2,36,0.00,,,0.00,WUHU216HW,2013-04-08 17:15:00,
2013-04-08 13:20:00,64.1,35.6,30.05,NW,315,5.4,9.2,35,0.00,,,0.00,WUHU216HW,2013-04-08 17:20:00,
2013-04-08 13:25:00,63.4,35.7,30.06,NNW,338,2.5,7.4,36,0.00,,,0.00,WUHU216HW,2013-04-08 17:25:00,
2013-04-08 13:30:00,63.0,35.5,30.06,North,0,0.7,7.2,36,0.00,,,0.00,WUHU216HW,2013-04-08 17:30:00,
2013-04-08 13:35:00,62.1,34.7,30.06,West,270,7.2,9.2,36,0.00,,,0.00,WUHU216HW,2013-04-08 17:35:00,
2013-04-08 13:40:00,62.3,35.5,30.06,NW,315,5.1,9.2,37,0.00,,,0.00,WUHU216HW,2013-04-08 17:40:00,
2013-04-08 13:45:00,62.6,35.1,30.06,WNW,293,7.4,9.4,36,0.00,,,0.00,WUHU216HW,2013-04-08 17:45:00,
2013-04-08 13:50:00,62.8,36.0,30.05,ESE,113,1.1,9.4,37,0.00,,,0.00,WUHU216HW,2013-04-08 17:50:00,
2013-04-08 13:55:00,62.8,33.9,30.05,WSW,248,2.5,5.8,34,0.00,,,0.00,WUHU216HW,2013-04-08 17:55:00,
2013-04-08 14:00:00,62.8,35.3,30.05,WNW,293,4.5,7.2,36,0.00,,,0.00,WUHU216HW,2013-04-08 18:00:00,
2013-04-08 14:05:00,62.8,35.3,30.05,SW,225,5.1,7.2,36,0.00,,,0.00,WUHU216HW,2013-04-08 18:05:00,
2013-04-08 14:10:00,62.8,33.9,30.05,WSW,248,5.6,6.9,34,0.00,,,0.00,WUHU216HW,2013-04-08 18:10:00,
2013-04-08 14:15:00,63.2,34.8,30.05,NW,315,3.4,9.8,35,0.00,,,0.00,WUHU216HW,2013-04-08 18:15:00,
2013-04-08 14:20:00,63.5,33.8,30.05,NNW,338,3.4,9.8,33,0.00,,,0.00,WUHU216HW,2013-04-08 18:20:00,
2013-04-08 14:25:00,63.4,33.6,30.05,SW,225,6.7,6.7,33,0.00,,,0.00,WUHU216HW,2013-04-08 18:25:00,
2013-04-08 14:30:00,62.8,33.9,30.05,NW,315,0.9,6.7,34,0.00,,,0.00,WUHU216HW,2013-04-08 18:30:00,
2013-04-08 14:35:00,62.6,33.7,30.05,WSW,248,3.8,6.7,34,0.00,,,0.00,WUHU216HW,2013-04-08 18:35:00,
2013-04-08 14:40:00,63.0,33.3,30.05,SW,225,3.4,7.4,33,0.00,,,0.00,WUHU216HW,2013-04-08 18:40:00,
2013-04-08 14:45:00,63.0,34.0,30.05,West,270,6.3,7.4,34,0.00,,,0.00,WUHU216HW,2013-04-08 18:45:00,
2013-04-08 14:50:00,63.5,33.8,30.05,WNW,293,5.4,8.1,33,0.00,,,0.00,WUHU216HW,2013-04-08 18:50:00,
2013-04-08 14:55:00,63.4,33.6,30.05,NW,315,2.5,8.1,33,0.00,,,0.00,WUHU216HW,2013-04-08 18:55:00,
2013-04-08 15:00:00,63.5,34.5,30.05,NW,315,4.0,6.9,34,0.00,,,0.00,WUHU216HW,2013-04-08 19:00:00,
2013-04-08 15:05:00,63.7,33.9,30.04,SSW,203,2.5,6.9,33,0.00,,,0.00,WUHU216HW,2013-04-08 19:05:00,
2013-04-08 15:10:00,63.7,33.9,30.04,WSW,248,3.4,5.6,33,0.00,,,0.00,WUHU216HW,2013-04-08 19:10:00,
2013-04-08 15:15:00,64.1,34.2,30.05,WSW,248,6.7,7.8,33,0.00,,,0.00,WUHU216HW,2013-04-08 19:15:00,
2013-04-08 15:21:00,64.1,34.2,30.04,WNW,293,3.4,7.8,33,0.00,,,0.00,WUHU216HW,2013-04-08 19:21:00,
2013-04-08 15:26:00,64.4,33.8,30.05,NNW,338,2.7,6.5,32,0.00,,,0.00,WUHU216HW,2013-04-08 19:26:00,
2013-04-08 15:31:00,63.9,33.4,30.04,WSW,248,4.5,6.9,32,0.00,,,0.00,WUHU216HW,2013-04-08 19:31:00,
2013-04-08 15:36:00,64.3,34.4,30.04,NNW,338,6.9,6.9,33,0.00,,,0.00,WUHU216HW,2013-04-08 19:36:00,
2013-04-08 15:42:00,64.4,33.8,30.04,NE,45,1.1,8.5,32,0.00,,,0.00,WUHU216HW,2013-04-08 19:42:00,
2013-04-08 15:47:00,64.4,33.8,30.04,NW,315,2.5,8.5,32,0.00,,,0.00,WUHU216HW,2013-04-08 19:47:00,
2013-04-08 15:52:00,64.8,33.5,30.04,NNW,338,2.5,8.5,31,0.00,,,0.00,WUHU216HW,2013-04-08 19:52:00,
2013-04-08 15:57:00,65.0,33.6,30.04,WSW,248,5.1,8.5,31,0.00,,,0.00,WUHU216HW,2013-04-08 19:57:00,
2013-04-08 16:02:00,65.0,33.6,30.04,WNW,293,4.5,6.9,31,0.00,,,0.00,WUHU216HW,2013-04-08 20:02:00,
2013-04-08 16:07:00,64.8,32.8,30.04,West,270,2.9,6.9,30,0.00,,,0.00,WUHU216HW,2013-04-08 20:07:00,
2013-04-08 16:12:00,64.6,34.0,30.04,NNW,338,1.1,6.9,32,0.00,,,0.00,WUHU216HW,2013-04-08 20:12:00,
2013-04-08 16:17:00,64.8,33.5,30.03,WNW,293,0.4,6.3,31,0.00,,,0.00,WUHU216HW,2013-04-08 20:17:00,
2013-04-08 16:22:00,64.8,34.2,30.04,West,270,1.6,6.3,32,0.00,,,0.00,WUHU216HW,2013-04-08 20:22:00,
2013-04-08 16:27:00,65.0,33.6,30.04,NNW,338,3.4,8.5,31,0.00,,,0.00,WUHU216HW,2013-04-08 20:27:00,
2013-04-08 16:32:00,65.0,33.6,30.04,NE,45,3.4,8.5,31,0.00,,,0.00,WUHU216HW,2013-04-08 20:32:00,
2013-04-08 16:37:00,64.8,32.8,30.03,NW,315,5.8,6.9,30,0.00,,,0.00,WUHU216HW,2013-04-08 20:37:00,
2013-04-08 16:42:00,64.8,33.5,30.03,North,0,1.1,6.9,31,0.00,,,0.00,WUHU216HW,2013-04-08 20:42:00,
2013-04-08 16:47:00,65.0,32.9,30.03,NNW,338,3.8,5.1,30,0.00,,,0.00,WUHU216HW,2013-04-08 20:47:00,
2013-04-08 16:52:00,64.8,32.8,30.03,WNW,293,3.4,5.1,30,0.00,,,0.00,WUHU216HW,2013-04-08 20:52:00,
2013-04-08 16:57:00,65.0,32.9,30.03,NNW,338,2.0,5.4,30,0.00,,,0.00,WUHU216HW,2013-04-08 20:57:00,
2013-04-08 17:02:00,64.6,32.6,30.04,NNW,338,2.2,5.4,30,0.00,,,0.00,WUHU216HW,2013-04-08 21:02:00,
2013-04-08 17:07:00,64.4,32.4,30.03,North,0,2.2,5.4,30,0.00,,,0.00,WUHU216HW,2013-04-08 21:07:00,
2013-04-08 17:12:00,64.3,32.2,30.04,NNE,23,4.7,4.7,30,0.00,,,0.00,WUHU216HW,2013-04-08 21:12:00,
2013-04-08 17:17:00,64.1,32.8,30.03,NE,45,5.1,5.4,31,0.00,,,0.00,WUHU216HW,2013-04-08 21:17:00,
2013-04-08 17:22:00,63.9,32.0,30.03,West,270,5.8,5.8,30,0.00,,,0.00,WUHU216HW,2013-04-08 21:22:00,
2013-04-08 17:27:00,64.4,32.4,30.04,WNW,293,3.6,5.8,30,0.00,,,0.00,WUHU216HW,2013-04-08 21:27:00,
2013-04-08 17:32:00,64.4,32.4,30.04,NNE,23,1.1,5.8,30,0.00,,,0.00,WUHU216HW,2013-04-08 21:32:00,
2013-04-08 17:37:00,64.4,32.4,30.03,NNE,23,2.7,6.9,30,0.00,,,0.00,WUHU216HW,2013-04-08 21:37:00,
2013-04-08 17:42:00,64.1,32.0,30.03,ESE,113,1.8,6.9,30,0.00,,,0.00,WUHU216HW,2013-04-08 21:42:00,
2013-04-08 17:47:00,63.9,32.0,30.03,NE,45,3.6,6.7,30,0.00,,,0.00,WUHU216HW,2013-04-08 21:47:00,
2013-04-08 17:52:00,63.7,30.8,30.03,NNW,338,2.5,6.7,29,0.00,,,0.00,WUHU216HW,2013-04-08 21:52:00,
2013-04-08 17:57:00,63.7,31.8,30.03,NNW,338,1.1,7.6,30,0.00,,,0.00,WUHU216HW,2013-04-08 21:57:00,
2013-04-08 18:02:00,63.7,32.5,30.03,NNE,23,0.4,7.6,31,0.00,,,0.00,WUHU216HW,2013-04-08 22:02:00,
2013-04-08 18:07:00,63.7,32.5,30.04,NNE,23,4.3,4.3,31,0.00,,,0.00,WUHU216HW,2013-04-08 22:07:00,
2013-04-08 18:12:00,63.5,32.3,30.03,NNW,338,1.3,4.7,31,0.00,,,0.00,WUHU216HW,2013-04-08 22:12:00,
2013-04-08 18:17:00,63.4,32.1,30.03,WNW,293,3.4,4.9,31,0.00,,,0.00,WUHU216HW,2013-04-08 22:17:00,
2013-04-08 18:22:00,63.4,30.4,30.03,SW,225,0.7,4.9,29,0.00,,,0.00,WUHU216HW,2013-04-08 22:22:00,
2013-04-08 18:27:00,63.0,31.9,30.04,West,270,0.2,3.4,31,0.00,,,0.00,WUHU216HW,2013-04-08 22:27:00,
2013-04-08 18:32:00,63.0,31.9,30.04,ENE,68,1.8,1.8,31,0.00,,,0.00,WUHU216HW,2013-04-08 22:32:00,
2013-04-08 18:37:00,62.8,31.7,30.04,NNW,338,0.7,1.8,31,0.00,,,0.00,WUHU216HW,2013-04-08 22:37:00,
2013-04-08 18:43:00,62.6,32.2,30.05,NNW,338,0.9,1.8,32,0.00,,,0.00,WUHU216HW,2013-04-08 22:43:00,
2013-04-08 18:48:00,62.3,32.6,30.05,NNW,338,0.2,1.1,33,0.00,,,0.00,WUHU216HW,2013-04-08 22:48:00,
2013-04-08 18:53:00,61.9,32.3,30.06,North,0,0.7,0.7,33,0.00,,,0.00,WUHU216HW,2013-04-08 22:53:00,
2013-04-08 18:58:00,61.4,31.8,30.06,North,0,0.4,1.1,33,0.00,,,0.00,WUHU216HW,2013-04-08 22:58:00,
2013-04-08 19:03:00,61.0,32.2,30.06,NNE,23,1.3,1.3,34,0.00,,,0.00,WUHU216HW,2013-04-08 23:03:00,
2013-04-08 19:08:00,60.1,34.3,30.07,SE,135,1.8,3.8,38,0.00,,,0.00,WUHU216HW,2013-04-08 23:08:00,
2013-04-08 19:13:00,59.4,35.1,30.07,ESE,113,1.3,3.8,40,0.00,,,0.00,WUHU216HW,2013-04-08 23:13:00,
2013-04-08 19:18:00,58.7,35.6,30.07,ENE,68,2.2,6.9,42,0.00,,,0.00,WUHU216HW,2013-04-08 23:18:00,
2013-04-08 19:23:00,58.1,35.6,30.07,East,90,1.6,6.9,43,0.00,,,0.00,WUHU216HW,2013-04-08 23:23:00,
2013-04-08 19:28:00,57.6,35.7,30.07,SE,135,0.7,2.9,44,0.00,,,0.00,WUHU216HW,2013-04-08 23:28:00,
2013-04-08 19:33:00,56.9,36.3,30.08,ESE,113,4.7,5.4,46,0.00,,,0.00,WUHU216HW,2013-04-08 23:33:00,
2013-04-08 19:38:00,56.3,36.3,30.08,SE,135,2.7,5.4,47,0.00,,,0.00,WUHU216HW,2013-04-08 23:38:00,
2013-04-08 19:43:00,55.8,36.4,30.08,SSW,203,3.8,7.4,48,0.00,,,0.00,WUHU216HW,2013-04-08 23:43:00,
2013-04-08 19:48:00,55.3,36.4,30.08,ESE,113,2.0,7.4,49,0.00,,,0.00,WUHU216HW,2013-04-08 23:48:00,
2013-04-08 19:53:00,54.9,36.6,30.08,ESE,113,4.0,5.1,50,0.00,,,0.00,WUHU216HW,2013-04-08 23:53:00,
2013-04-08 19:58:00,54.4,36.1,30.08,ESE,113,1.8,5.1,50,0.00,,,0.00,WUHU216HW,2013-04-08 23:58:00,
2013-04-08 20:03:00,54.2,36.5,30.08,ESE,113,1.1,4.7,51,0.00,,,0.00,WUHU216HW,2013-04-09 00:03:00,
2013-04-08 20:08:00,53.8,35.1,30.09,ESE,113,0.9,3.4,49,0.00,,,0.00,WUHU216HW,2013-04-09 00:08:00,
2013-04-08 20:13:00,53.6,34.9,30.09,NE,45,0.4,2.9,49,0.00,,,0.00,WUHU216HW,2013-04-09 00:13:00,
2013-04-08 20:18:00,53.6,34.9,30.09,NE,45,0.2,1.1,49,0.00,,,0.00,WUHU216HW,2013-04-09 00:18:00,
2013-04-08 20:23:00,53.3,34.6,30.09,East,90,0.9,1.6,49,0.00,,,0.00,WUHU216HW,2013-04-09 00:23:00,
2013-04-08 20:28:00,52.9,34.8,30.09,SE,135,0.4,1.6,50,0.00,,,0.00,WUHU216HW,2013-04-09 00:28:00,
2013-04-08 20:33:00,52.7,34.7,30.09,North,0,0.4,1.8,50,0.00,,,0.00,WUHU216HW,2013-04-09 00:33:00,
2013-04-08 20:38:00,52.4,34.3,30.09,East,90,0.7,1.8,50,0.00,,,0.00,WUHU216HW,2013-04-09 00:38:00,
2013-04-08 20:43:00,52.2,34.7,30.09,ENE,68,1.1,2.0,51,0.00,,,0.00,WUHU216HW,2013-04-09 00:43:00,
2013-04-08 20:48:00,52.0,34.5,30.10,NE,45,0.2,2.0,51,0.00,,,0.00,WUHU216HW,2013-04-09 00:48:00,
2013-04-08 20:53:00,51.7,34.1,30.10,NE,45,0.4,1.3,51,0.00,,,0.00,WUHU216HW,2013-04-09 00:53:00,
2013-04-08 20:58:00,51.5,34.4,30.10,NE,45,0.0,1.6,52,0.00,,,0.00,WUHU216HW,2013-04-09 00:58:00,
2013-04-08 21:03:00,51.3,34.3,30.10,NE,45,0.2,1.6,52,0.00,,,0.00,WUHU216HW,2013-04-09 01:03:00,
2013-04-08 21:08:00,51.1,34.6,30.10,NE,45,0.4,1.6,53,0.00,,,0.00,WUHU216HW,2013-04-09 01:08:00,
2013-04-08 21:13:00,50.8,34.2,30.10,NE,45,0.0,1.6,53,0.00,,,0.00,WUHU216HW,2013-04-09 01:13:00,
2013-04-08 21:18:00,50.6,34.0,30.11,NE,45,0.4,0.4,53,0.00,,,0.00,WUHU216HW,2013-04-09 01:18:00,
2013-04-08 21:23:00,50.4,34.8,30.11,ESE,113,0.7,0.9,55,0.00,,,0.00,WUHU216HW,2013-04-09 01:23:00,
2013-04-08 21:28:00,50.2,34.2,30.11,SE,135,0.2,1.1,54,0.00,,,0.00,WUHU216HW,2013-04-09 01:28:00,
2013-04-08 21:33:00,50.0,34.0,30.11,ENE,68,0.0,1.1,54,0.00,,,0.00,WUHU216HW,2013-04-09 01:33:00,
2013-04-08 21:38:00,50.0,34.5,30.11,ENE,68,0.4,0.9,55,0.00,,,0.00,WUHU216HW,2013-04-09 01:38:00,
2013-04-08 21:43:00,49.9,34.7,30.11,ENE,68,0.4,1.1,56,0.00,,,0.00,WUHU216HW,2013-04-09 01:43:00,
2013-04-08 21:48:00,49.7,34.6,30.11,ENE,68,0.7,1.1,56,0.00,,,0.00,WUHU216HW,2013-04-09 01:48:00,
2013-04-08 21:53:00,49.5,35.3,30.10,NE,45,2.2,2.5,58,0.00,,,0.00,WUHU216HW,2013-04-09 01:53:00,
2013-04-08 21:58:00,49.3,35.2,30.10,NE,45,1.3,2.5,58,0.00,,,0.00,WUHU216HW,2013-04-09 01:58:00,
2013-04-08 22:03:00,49.1,35.0,30.10,NE,45,0.4,2.0,58,0.00,,,0.00,WUHU216HW,2013-04-09 02:03:00,
2013-04-08 22:08:00,49.0,34.8,30.10,SSE,158,0.7,1.8,58,0.00,,,0.00,WUHU216HW,2013-04-09 02:08:00,
2013-04-08 22:13:00,49.0,34.8,30.10,SSE,158,0.2,0.9,58,0.00,,,0.00,WUHU216HW,2013-04-09 02:13:00,
2013-04-08 22:18:00,49.0,34.8,30.11,East,90,0.4,1.1,58,0.00,,,0.00,WUHU216HW,2013-04-09 02:18:00,
2013-04-08 22:23:00,49.0,34.8,30.11,East,90,0.0,1.1,58,0.00,,,0.00,WUHU216HW,2013-04-09 02:23:00,
2013-04-08 22:28:00,49.0,35.3,30.11,SE,135,0.0,0.7,59,0.00,,,0.00,WUHU216HW,2013-04-09 02:28:00,
2013-04-08 22:33:00,49.0,35.3,30.11,NNE,23,0.2,1.6,59,0.00,,,0.00,WUHU216HW,2013-04-09 02:33:00,
2013-04-08 22:38:00,49.0,35.3,30.11,NNE,23,0.7,1.6,59,0.00,,,0.00,WUHU216HW,2013-04-09 02:38:00,
2013-04-08 22:44:00,49.0,35.3,30.10,East,90,0.2,1.3,59,0.00,,,0.00,WUHU216HW,2013-04-09 02:44:00,
2013-04-08 22:49:00,49.0,35.7,30.10,East,90,0.4,1.3,60,0.00,,,0.00,WUHU216HW,2013-04-09 02:49:00,
2013-04-08 22:54:00,49.1,35.9,30.11,NNE,23,0.4,1.3,60,0.00,,,0.00,WUHU216HW,2013-04-09 02:54:00,
2013-04-08 22:59:00,49.1,36.3,30.11,West,270,0.2,1.3,61,0.00,,,0.00,WUHU216HW,2013-04-09 02:59:00,
2013-04-08 23:04:00,49.1,36.7,30.10,ESE,113,1.1,1.1,62,0.00,,,0.00,WUHU216HW,2013-04-09 03:04:00,
2013-04-08 23:09:00,49.1,36.3,30.09,ENE,68,0.4,1.3,61,0.00,,,0.00,WUHU216HW,2013-04-09 03:09:00,
2013-04-08 23:14:00,49.0,36.1,30.09,ENE,68,1.6,1.6,61,0.00,,,0.00,WUHU216HW,2013-04-09 03:14:00,
2013-04-08 23:19:00,49.0,36.1,30.09,East,90,0.7,1.6,61,0.00,,,0.00,WUHU216HW,2013-04-09 03:19:00,
2013-04-08 23:24:00,48.8,36.0,30.09,ENE,68,0.0,1.8,61,0.00,,,0.00,WUHU216HW,2013-04-09 03:24:00,
2013-04-08 23:29:00,49.0,36.6,30.09,ENE,68,0.7,1.8,62,0.00,,,0.00,WUHU216HW,2013-04-09 03:29:00,
2013-04-08 23:34:00,49.0,36.9,30.09,East,90,1.1,1.8,63,0.00,,,0.00,WUHU216HW,2013-04-09 03:34:00,
2013-04-08 23:39:00,49.0,36.9,30.09,ESE,113,0.0,3.4,63,0.00,,,0.00,WUHU216HW,2013-04-09 03:39:00,
2013-04-08 23:44:00,49.0,36.9,30.09,East,90,0.9,3.4,63,0.00,,,0.00,WUHU216HW,2013-04-09 03:44:00,
2013-04-08 23:50:00,49.0,36.9,30.09,NNE,23,0.0,1.6,63,0.00,,,0.00,WUHU216HW,2013-04-09 03:50:00,
2013-04-08 23:55:00,49.0,36.9,30.09,NNE,23,0.9,1.6,63,0.00,,,0.00,WUHU216HW,2013-04-09 03:55:00,